Tracking 25964 objects as of 11-Aug-2022
HD Live streaming from Space Station
objects crossing your sky now

STARLINK-1781

Track STARLINK-1781 now!
10-day predictions
STARLINK-1781 is classified as:


NORAD ID: 46685
Int'l Code: 2020-073R
Perigee: 553.5 km
Apogee: 555.4 km
Inclination: 53.1 °
Period: 95.6 minutes
Semi major axis: 6925 km
RCS: Unknown
Launch date: October 18, 2020
Source: United States (US)
Launch site: AIR FORCE EASTERN TEST RANGE (AFETR)
aabbcc
Your satellite tracking list
Your tracking list is empty




NASA's NSSDC Master Catalog

Two Line Element Set (TLE):
1 46685U 20073R   22222.85514831 -.00000035  00000-0  16524-4 0  9997
2 46685  53.0544   3.2128 0001368  91.5536 268.5609 15.06382977 99940
Source of the keplerian elements: AFSPC